M I D A S
Marine Information and Data Acquisition System
Tripno 63 of the Zeeleeuw from 2001-08-31 06:08:46 to 2001-08-31 19:00:00
Back to CruiseResearch ActivitiesStationsMapUnderway DataData graphs

EquipmentUnitsComments
TimeDGPSUTC
LatitudeDGPSDM.mWGS84
LongitudeDGPSDM.mWGS84
SpeedMeteo Stationm/sRelative wind speed
DirectionMeteo StationdegRelative wind direction
TemperatureMeteo Stationdeg CelciusAir temperature
PressureMeteo StationPaAtmospheric pressure
HumidityMeteo Station%Relative humidity
Missing or incorrect values are displayed as -999
Metereological data collected by the RV Zeeleeuw from 2001-08-31 06:08:46 to 2001-08-31 19:00:00
                                                                                    Next 1000 lines
Time Latitude Longitude Speed Direction Temperature Pressure Humidity
2001-08-31 06:08:56 51°13.679 2°55.924 1.6 226 15.1 -999 80
2001-08-31 06:09:01 51°13.678 2°55.924 1.5 233 15.1 -999 80
2001-08-31 06:09:07 51°13.678 2°55.923 1.4 231 15.1 100760 80
2001-08-31 06:09:12 51°13.678 2°55.924 1.6 240 15.1 100760 80
2001-08-31 06:09:17 51°13.678 2°55.923 1.8 248 15.1 100760 80
2001-08-31 06:09:22 51°13.678 2°55.923 1.5 228 15.1 100760 80
2001-08-31 06:09:27 51°13.678 2°55.923 1.5 189 15.1 100760 80
2001-08-31 06:09:32 51°13.678 2°55.923 1.3 226 15.1 100760 80
2001-08-31 06:09:37 51°13.678 2°55.923 1.4 237 15.1 100760 80
2001-08-31 06:09:42 51°13.678 2°55.923 1.7 259 15.1 100760 80
2001-08-31 06:09:47 51°13.678 2°55.922 1.6 251 15.1 100760 80
2001-08-31 06:09:52 51°13.678 2°55.922 1.7 255 15.1 100760 80
2001-08-31 06:09:57 51°13.677 2°55.922 1.7 255 15.1 100760 80
2001-08-31 06:10:02 51°13.677 2°55.922 1.6 267 15.1 100760 80
2001-08-31 06:10:07 51°13.677 2°55.922 1.7 254 15.1 100760 80
2001-08-31 06:10:12 51°13.677 2°55.922 1.5 247 15.1 100760 80
2001-08-31 06:10:17 51°13.677 2°55.922 1.5 249 15.1 100760 80
2001-08-31 06:10:22 51°13.677 2°55.922 1.8 245 15.1 100760 80
2001-08-31 06:10:27 51°13.678 2°55.922 1.7 243 15.1 100760 80
2001-08-31 06:10:32 51°13.678 2°55.922 1.6 258 15.1 100760 80
2001-08-31 06:10:37 51°13.678 2°55.922 2 263 15.1 100760 80
2001-08-31 06:10:42 51°13.678 2°55.922 1.3 296 15.1 100760 80
2001-08-31 06:10:47 51°13.678 2°55.922 1.1 313 15.1 100760 80
2001-08-31 06:10:52 51°13.678 2°55.922 1.3 308 15.1 100760 80
2001-08-31 06:10:57 51°13.678 2°55.922 1.2 298 15.1 100760 80
2001-08-31 06:11:02 51°13.678 2°55.922 1.4 312 15.1 100760 80
2001-08-31 06:11:07 51°13.678 2°55.922 1.5 305 15.1 100760 80
2001-08-31 06:11:12 51°13.678 2°55.922 1.1 307 15.1 100760 80
2001-08-31 06:11:17 51°13.678 2°55.922 1.4 329 15.1 100760 81
2001-08-31 06:11:22 51°13.678 2°55.922 1.2 306 15.1 100760 81
2001-08-31 06:11:27 51°13.678 2°55.922 1.4 295 15.1 100760 81
2001-08-31 06:11:32 51°13.678 2°55.922 1.5 327 15.1 100760 81
2001-08-31 06:11:37 51°13.678 2°55.922 1.5 324 15.1 100760 81
2001-08-31 06:11:42 51°13.678 2°55.922 1.5 302 15.1 100760 81
2001-08-31 06:11:47 51°13.678 2°55.922 1.2 301 15.1 100760 81
2001-08-31 06:11:52 51°13.678 2°55.922 1.4 277 15.1 100760 81
2001-08-31 06:11:57 51°13.678 2°55.922 1.4 306 15.1 100760 81
2001-08-31 06:12:02 51°13.678 2°55.922 1.5 307 15.1 100760 81
2001-08-31 06:12:07 51°13.678 2°55.922 1.5 307 15.1 100760 82
2001-08-31 06:12:12 51°13.678 2°55.922 1.4 295 15.1 100760 82
2001-08-31 06:12:17 51°13.678 2°55.922 2.2 281 15.1 100760 82
2001-08-31 06:12:22 51°13.678 2°55.922 1.5 281 15.1 100760 82
2001-08-31 06:12:27 51°13.678 2°55.922 1.1 283 15.1 100760 82
2001-08-31 06:12:32 51°13.678 2°55.922 1.8 283 15.1 100760 82
2001-08-31 06:12:37 51°13.678 2°55.922 1.6 293 15.1 100760 82
2001-08-31 06:12:42 51°13.678 2°55.922 1.3 295 15.1 100760 82
2001-08-31 06:12:47 51°13.678 2°55.922 1.2 311 15.1 100760 82
2001-08-31 06:12:52 51°13.678 2°55.922 1.6 273 15.1 100760 82
2001-08-31 06:12:57 51°13.678 2°55.922 1.3 274 15.1 100760 82
2001-08-31 06:13:02 51°13.678 2°55.922 1.3 315 15.1 100760 82
2001-08-31 06:13:07 51°13.678 2°55.922 1.5 321 15.1 100760 82
2001-08-31 06:13:12 51°13.678 2°55.922 1.3 305 15.1 100760 82
2001-08-31 06:13:17 51°13.678 2°55.922 1.3 296 15.1 100760 82
2001-08-31 06:13:22 51°13.678 2°55.922 1.6 316 15.1 100760 82
2001-08-31 06:13:27 51°13.678 2°55.922 1.5 312 15.1 100760 82
2001-08-31 06:13:32 51°13.678 2°55.922 1.1 300 15.1 100760 82
2001-08-31 06:13:37 51°13.677 2°55.922 1.5 298 15.1 100760 83
2001-08-31 06:13:42 51°13.677 2°55.922 1.8 278 15.1 100760 83
2001-08-31 06:13:47 51°13.677 2°55.922 1.8 278 15.1 100760 82
2001-08-31 06:13:52 51°13.677 2°55.922 1.7 284 15.1 100760 82
2001-08-31 06:13:57 51°13.677 2°55.922 1.5 280 15 100760 82
2001-08-31 06:14:02 51°13.677 2°55.922 1.3 304 15 100760 82
2001-08-31 06:14:07 51°13.677 2°55.922 1.6 304 15 100760 82
2001-08-31 06:14:12 51°13.677 2°55.922 1.6 276 15 100760 82
2001-08-31 06:14:17 51°13.677 2°55.922 1.4 284 15 100760 82
2001-08-31 06:14:22 51°13.677 2°55.922 1.3 301 15 100760 82
2001-08-31 06:14:27 51°13.677 2°55.922 1.3 301 15 100760 83
2001-08-31 06:14:32 51°13.677 2°55.922 1.4 266 15 100760 83
2001-08-31 06:14:37 51°13.677 2°55.922 1.3 272 15 100760 83
2001-08-31 06:14:42 51°13.678 2°55.922 1.3 280 15 100760 83
2001-08-31 06:14:47 51°13.678 2°55.922 1.1 294 15 100760 83
2001-08-31 06:14:52 51°13.678 2°55.922 1.5 312 15 100760 83
2001-08-31 06:14:57 51°13.678 2°55.922 1.4 306 14.9 100760 83
2001-08-31 06:15:02 51°13.678 2°55.922 1.4 269 14.9 100760 83
2001-08-31 06:15:07 51°13.678 2°55.922 1.5 253 14.9 100760 83
2001-08-31 06:15:12 51°13.678 2°55.922 1.2 288 14.9 100760 83
2001-08-31 06:15:17 51°13.678 2°55.922 1.3 290 14.9 100760 83
2001-08-31 06:15:22 51°13.678 2°55.922 1.5 279 14.9 100760 83
2001-08-31 06:15:27 51°13.678 2°55.922 1.6 280 14.9 100760 84
2001-08-31 06:15:32 51°13.678 2°55.922 1.7 279 14.9 100760 84
2001-08-31 06:15:37 51°13.678 2°55.922 1.7 279 14.9 100760 84
2001-08-31 06:15:42 51°13.678 2°55.922 1.2 278 14.9 100760 84
2001-08-31 06:15:47 51°13.678 2°55.922 1.2 280 14.9 100770 84
2001-08-31 06:15:52 51°13.678 2°55.922 1 279 14.9 100770 84
2001-08-31 06:15:57 51°13.678 2°55.922 1.1 280 14.9 100760 83
2001-08-31 06:16:02 51°13.678 2°55.922 1.6 264 14.9 100760 83
2001-08-31 06:16:07 51°13.678 2°55.922 1.3 269 14.8 100760 83
2001-08-31 06:16:12 51°13.678 2°55.922 1.2 283 14.8 100760 83
2001-08-31 06:16:17 51°13.678 2°55.922 1 317 14.8 100760 84
2001-08-31 06:16:22 51°13.678 2°55.922 1 285 14.8 100760 84
2001-08-31 06:16:27 51°13.678 2°55.922 1.1 294 14.8 100760 84
2001-08-31 06:16:32 51°13.678 2°55.922 1.3 306 14.8 100760 84
2001-08-31 06:16:37 51°13.678 2°55.922 1.1 325 14.8 100760 84
2001-08-31 06:16:42 51°13.678 2°55.922 1.1 318 14.8 100760 84
2001-08-31 06:16:47 51°13.678 2°55.922 1.1 307 14.8 100760 84
2001-08-31 06:16:52 51°13.678 2°55.922 1.7 283 14.8 100760 84
2001-08-31 06:16:57 51°13.678 2°55.922 1.8 280 14.8 100760 84
2001-08-31 06:17:02 51°13.678 2°55.922 1 261 14.8 100760 84
2001-08-31 06:17:07 51°13.678 2°55.922 1.1 261 14.8 100760 84
2001-08-31 06:17:12 51°13.678 2°55.923 1.1 300 14.8 100760 84
2001-08-31 06:17:17 51°13.678 2°55.923 1.1 300 14.8 100760 84
2001-08-31 06:17:22 51°13.678 2°55.923 1.6 269 14.8 100760 84
2001-08-31 06:17:27 51°13.678 2°55.923 1.5 273 14.8 100760 84
2001-08-31 06:17:32 51°13.678 2°55.923 0.9 302 14.8 100760 84
2001-08-31 06:17:37 51°13.678 2°55.923 1 278 14.8 100760 84
2001-08-31 06:17:42 51°13.678 2°55.923 1.2 305 14.8 100760 84
2001-08-31 06:17:47 51°13.678 2°55.923 1 310 14.8 100760 85
2001-08-31 06:17:52 51°13.678 2°55.923 1.2 292 14.8 100760 85
2001-08-31 06:17:57 51°13.678 2°55.923 1.3 279 14.8 100760 85
2001-08-31 06:18:02 51°13.678 2°55.923 1.2 312 14.8 100760 85
2001-08-31 06:18:07 51°13.678 2°55.923 1.3 318 14.8 100760 85
2001-08-31 06:18:12 51°13.678 2°55.923 1.3 327 14.8 100760 85
2001-08-31 06:18:17 51°13.678 2°55.923 1.4 325 14.8 100760 85
2001-08-31 06:18:22 51°13.678 2°55.923 1.4 299 14.8 100760 85
2001-08-31 06:18:26 51°13.678 2°55.923 1.2 288 14.8 100760 85
2001-08-31 07:12:15 51°13.68 2°55.922 1.3 202 16.3 100740 82
2001-08-31 07:12:19 51°13.68 2°55.922 1.3 171 16.3 100740 82
2001-08-31 07:12:24 51°13.68 2°55.922 2 173 16.3 100740 82
2001-08-31 07:12:29 51°13.68 2°55.922 1.5 168 16.3 100740 82
2001-08-31 07:12:34 51°13.68 2°55.922 2.5 165 16.3 100740 82
2001-08-31 07:12:40 51°13.679 2°55.922 2.5 155 16.3 100740 82
2001-08-31 07:12:45 51°13.679 2°55.922 1.2 166 16.3 100740 82
2001-08-31 07:12:49 51°13.679 2°55.922 2.4 158 16.3 100740 82
2001-08-31 07:12:55 51°13.679 2°55.923 2.5 163 16.3 100740 82
2001-08-31 07:13:00 51°13.679 2°55.923 2.5 168 16.3 100740 82
2001-08-31 07:13:06 51°13.679 2°55.923 2.9 165 16.3 100740 82
2001-08-31 07:13:10 51°13.679 2°55.923 2.6 159 16.3 100740 82
2001-08-31 07:13:15 51°13.679 2°55.923 2.7 170 16.3 100740 81
2001-08-31 07:13:20 51°13.679 2°55.923 2.3 173 16.3 100740 81
2001-08-31 07:13:26 51°13.679 2°55.923 2.6 166 16.3 100730 81
2001-08-31 07:13:30 51°13.679 2°55.923 2.5 179 16.3 100730 81
2001-08-31 07:13:35 51°13.679 2°55.923 2.2 184 16.3 100740 81
2001-08-31 07:13:40 51°13.679 2°55.923 1.7 184 16.3 100740 81
2001-08-31 07:13:45 51°13.679 2°55.923 1.4 183 16.3 100740 81
2001-08-31 07:13:50 51°13.679 2°55.923 1.2 148 16.3 100740 81
2001-08-31 07:13:55 51°13.679 2°55.923 0.6 168 16.3 100740 81
2001-08-31 07:14:00 51°13.679 2°55.923 1.6 180 16.3 100740 81
2001-08-31 07:14:05 51°13.679 2°55.923 1.1 193 16.3 100730 82
2001-08-31 07:14:10 51°13.679 2°55.923 0.9 186 16.3 100730 82
2001-08-31 07:14:14 51°13.679 2°55.923 1.1 159 16.4 100740 82
2001-08-31 07:14:17 51°13.679 2°55.923 0.9 171 16.4 100740 82
2001-08-31 07:14:21 51°13.679 2°55.923 1.1 196 16.4 100730 82
2001-08-31 07:14:26 51°13.679 2°55.923 0.7 197 16.4 100730 82
2001-08-31 07:14:30 51°13.679 2°55.923 0.8 197 16.4 100730 81
2001-08-31 07:14:36 51°13.679 2°55.923 1.3 183 16.4 100730 81
2001-08-31 07:14:40 51°13.679 2°55.923 1.4 195 16.4 100730 81
2001-08-31 07:14:46 51°13.679 2°55.923 1.9 182 16.4 100730 81
2001-08-31 07:14:50 51°13.679 2°55.922 1.5 205 16.4 100730 81
2001-08-31 07:14:56 51°13.679 2°55.922 1.3 195 16.4 100730 81
2001-08-31 07:15:00 51°13.679 2°55.922 1.5 197 16.4 100740 81
2001-08-31 07:15:06 51°13.679 2°55.922 1.4 200 16.4 100740 81
2001-08-31 07:15:10 51°13.679 2°55.922 1.5 201 16.4 100730 81
2001-08-31 07:15:16 51°13.679 2°55.922 1.6 208 16.4 100730 81
2001-08-31 07:15:20 51°13.679 2°55.922 1.6 217 16.4 100740 81
2001-08-31 07:15:26 51°13.679 2°55.922 1.7 215 16.4 100740 81
2001-08-31 07:15:30 51°13.679 2°55.922 1.9 211 16.4 100730 81
2001-08-31 07:15:36 51°13.679 2°55.922 1.9 206 16.4 100730 81
2001-08-31 07:15:40 51°13.679 2°55.922 1.5 214 16.4 100730 81
2001-08-31 07:15:46 51°13.679 2°55.922 1.6 215 16.4 100730 81
2001-08-31 07:15:50 51°13.679 2°55.922 2 211 16.4 100730 81
2001-08-31 07:15:56 51°13.679 2°55.922 1.7 220 16.4 100730 81
2001-08-31 07:16:00 51°13.679 2°55.922 1.3 222 16.4 100730 81
2001-08-31 07:16:06 51°13.679 2°55.922 1.3 233 16.4 100730 81
2001-08-31 07:16:10 51°13.678 2°55.922 1.4 210 16.4 100730 81
2001-08-31 07:16:16 51°13.678 2°55.922 1.3 194 16.4 100730 81
2001-08-31 07:16:20 51°13.678 2°55.922 1.3 190 16.4 100730 81
2001-08-31 07:16:26 51°13.678 2°55.922 1.4 221 16.4 100730 81
2001-08-31 07:16:30 51°13.678 2°55.922 1.8 223 16.4 100730 81
2001-08-31 07:16:36 51°13.678 2°55.922 1.8 240 16.4 100730 81
2001-08-31 07:16:40 51°13.678 2°55.922 1.6 270 16.4 100740 81
2001-08-31 07:16:46 51°13.678 2°55.922 0.8 246 16.4 100740 81
2001-08-31 07:16:50 51°13.678 2°55.922 0.4 238 16.4 100730 81
2001-08-31 07:16:56 51°13.678 2°55.922 0.5 187 16.4 100730 81
2001-08-31 07:17:00 51°13.678 2°55.922 0.9 175 16.4 100730 81
2001-08-31 07:17:06 51°13.678 2°55.922 0.9 152 16.4 100730 81
2001-08-31 07:17:10 51°13.678 2°55.922 1.1 132 16.4 100730 81
2001-08-31 07:17:16 51°13.678 2°55.922 1.4 201 16.4 100730 81
2001-08-31 07:17:20 51°13.678 2°55.922 1.4 197 16.4 100730 81
2001-08-31 07:17:26 51°13.678 2°55.922 1.2 202 16.4 100730 81
2001-08-31 07:17:30 51°13.678 2°55.922 1.4 207 16.4 100730 82
2001-08-31 07:17:36 51°13.678 2°55.922 1.6 208 16.4 100730 82
2001-08-31 07:17:40 51°13.678 2°55.922 1.5 209 16.4 100730 82
2001-08-31 07:17:46 51°13.678 2°55.922 1.3 208 16.4 100730 82
2001-08-31 07:17:50 51°13.678 2°55.922 1.3 206 16.4 100730 82
2001-08-31 07:17:56 51°13.678 2°55.922 1.4 205 16.4 100730 82
2001-08-31 07:18:00 51°13.678 2°55.922 1.3 212 16.4 100730 81
2001-08-31 07:18:06 51°13.678 2°55.922 1.5 213 16.4 100730 81
2001-08-31 07:18:10 51°13.678 2°55.922 1.7 216 16.4 100730 81
2001-08-31 07:18:16 51°13.678 2°55.922 1.5 205 16.4 100730 81
2001-08-31 07:18:20 51°13.678 2°55.922 1.3 190 16.4 100730 81
2001-08-31 07:18:26 51°13.678 2°55.922 1.5 204 16.4 100730 81
2001-08-31 07:18:30 51°13.678 2°55.922 1.3 223 16.4 100730 82
2001-08-31 07:18:36 51°13.678 2°55.922 1 205 16.4 100730 82
2001-08-31 07:18:40 51°13.678 2°55.922 1.1 206 16.4 100730 82
2001-08-31 07:18:46 51°13.678 2°55.922 1.1 211 16.4 100730 82
2001-08-31 07:18:50 51°13.678 2°55.922 1.5 227 16.4 100730 81
2001-08-31 07:18:56 51°13.678 2°55.922 2 230 16.4 100730 81
2001-08-31 07:19:00 51°13.678 2°55.922 1.9 246 16.4 100730 81
2001-08-31 07:19:06 51°13.678 2°55.922 2.2 239 16.4 100730 81
2001-08-31 07:19:10 51°13.678 2°55.922 2.2 239 16.4 100730 81
2001-08-31 07:19:16 51°13.678 2°55.922 1.8 243 16.4 100730 81
2001-08-31 07:19:20 51°13.678 2°55.922 1.7 242 16.4 100730 81
2001-08-31 07:19:26 51°13.678 2°55.922 1.7 248 16.4 100730 81
2001-08-31 07:19:30 51°13.678 2°55.922 1.2 236 16.4 100730 81
2001-08-31 07:19:36 51°13.678 2°55.922 1.3 229 16.4 100730 81
2001-08-31 07:19:40 51°13.678 2°55.922 1.7 256 16.4 100730 81
2001-08-31 07:19:46 51°13.678 2°55.922 1.7 235 16.4 100730 81
2001-08-31 07:19:50 51°13.678 2°55.922 1.6 247 16.4 100730 81
2001-08-31 07:19:56 51°13.678 2°55.922 1.5 246 16.4 100730 81
2001-08-31 07:20:00 51°13.678 2°55.922 1.4 223 16.4 100730 81
2001-08-31 07:20:06 51°13.678 2°55.922 1.1 232 16.4 100730 81
2001-08-31 07:20:10 51°13.678 2°55.922 0.9 231 16.4 100730 81
2001-08-31 07:20:16 51°13.678 2°55.922 1.3 231 16.4 100730 81
2001-08-31 07:20:20 51°13.678 2°55.922 1.3 264 16.4 100730 81
2001-08-31 07:20:26 51°13.678 2°55.922 1.1 234 16.4 100730 81
2001-08-31 07:20:30 51°13.678 2°55.922 1.2 240 16.4 100730 81
2001-08-31 07:20:36 51°13.678 2°55.922 1.5 232 16.4 100730 81
2001-08-31 07:20:40 51°13.678 2°55.922 1.5 236 16.4 100730 81
2001-08-31 07:20:46 51°13.678 2°55.922 2 261 16.4 100730 81
2001-08-31 07:20:50 51°13.678 2°55.922 1.9 221 16.3 100730 81
2001-08-31 07:20:56 51°13.678 2°55.922 1.5 235 16.3 100730 81
2001-08-31 07:21:00 51°13.678 2°55.922 1.2 213 16.4 100730 81
2001-08-31 07:21:06 51°13.678 2°55.922 1.4 206 16.4 100730 81
2001-08-31 07:21:10 51°13.678 2°55.922 1.3 208 16.4 100730 81
2001-08-31 07:21:16 51°13.678 2°55.922 1 201 16.4 100730 81
2001-08-31 07:21:20 51°13.678 2°55.922 0.9 204 16.3 100730 81
2001-08-31 07:21:26 51°13.678 2°55.922 1.1 219 16.3 100730 81
2001-08-31 07:21:30 51°13.678 2°55.922 1.1 212 16.3 100730 81
2001-08-31 07:21:36 51°13.678 2°55.922 1.1 229 16.3 100730 81
2001-08-31 07:21:40 51°13.678 2°55.922 1.1 214 16.3 100730 81
2001-08-31 07:21:46 51°13.678 2°55.922 1.2 226 16.3 100730 81
2001-08-31 07:21:50 51°13.678 2°55.922 1.4 227 16.3 100730 82
2001-08-31 07:21:56 51°13.678 2°55.922 1.3 236 16.3 100730 82
2001-08-31 07:22:00 51°13.678 2°55.922 1.2 229 16.3 100730 81
2001-08-31 07:22:06 51°13.678 2°55.922 1.4 271 16.3 100730 81
2001-08-31 07:22:10 51°13.678 2°55.922 1.4 253 16.3 100730 81
2001-08-31 07:22:16 51°13.678 2°55.922 1.5 263 16.3 100730 81
2001-08-31 07:22:20 51°13.678 2°55.922 0.8 256 16.3 100730 82
2001-08-31 07:22:26 51°13.678 2°55.922 1.2 194 16.3 100730 82
2001-08-31 07:22:30 51°13.678 2°55.922 0.8 175 16.3 100730 82
2001-08-31 07:22:36 51°13.678 2°55.922 1.6 213 16.3 100730 82
2001-08-31 07:22:40 51°13.678 2°55.922 1.5 217 16.3 100730 82
2001-08-31 07:22:46 51°13.678 2°55.922 1.2 227 16.3 100730 82
2001-08-31 07:22:50 51°13.678 2°55.922 1.3 230 16.4 100730 82
2001-08-31 07:22:56 51°13.678 2°55.922 1.3 239 16.4 100730 82
2001-08-31 07:23:00 51°13.677 2°55.922 1.2 252 16.4 100730 82
2001-08-31 07:23:06 51°13.677 2°55.922 1.1 269 16.4 100730 82
2001-08-31 07:23:10 51°13.677 2°55.922 1 236 16.4 100730 82
2001-08-31 07:23:16 51°13.677 2°55.922 1.1 252 16.4 100730 82
2001-08-31 07:23:20 51°13.677 2°55.922 1.2 244 16.4 100730 82
2001-08-31 07:23:26 51°13.677 2°55.922 1.4 242 16.4 100730 82
2001-08-31 07:23:30 51°13.677 2°55.922 1.6 220 16.4 100730 82
2001-08-31 07:23:36 51°13.677 2°55.922 1.6 239 16.4 100730 82
2001-08-31 07:23:40 51°13.677 2°55.922 1.2 241 16.4 100730 82
2001-08-31 07:23:46 51°13.677 2°55.922 1.3 229 16.4 100730 82
2001-08-31 07:23:50 51°13.677 2°55.923 1 238 16.4 100730 82
2001-08-31 07:23:56 51°13.677 2°55.923 1 238 16.4 100730 82
2001-08-31 07:24:00 51°13.677 2°55.923 0.9 238 16.4 100730 82
2001-08-31 07:24:06 51°13.677 2°55.923 1 237 16.4 100730 82
2001-08-31 07:24:10 51°13.677 2°55.923 1.1 241 16.4 100730 82
2001-08-31 07:24:16 51°13.677 2°55.923 1.2 243 16.4 100730 82
2001-08-31 07:24:20 51°13.677 2°55.923 1.3 245 16.4 100730 82
2001-08-31 07:24:26 51°13.677 2°55.923 1 227 16.4 100730 82
2001-08-31 07:24:30 51°13.677 2°55.923 0.9 237 16.4 100730 82
2001-08-31 07:24:36 51°13.677 2°55.923 1 246 16.4 100730 82
2001-08-31 07:24:40 51°13.677 2°55.923 0.9 250 16.4 100730 83
2001-08-31 07:24:46 51°13.677 2°55.923 0.8 250 16.4 100730 83
2001-08-31 07:24:50 51°13.677 2°55.923 0.9 250 16.4 100730 83
2001-08-31 07:24:56 51°13.677 2°55.923 0.9 244 16.4 100730 83
2001-08-31 07:25:00 51°13.677 2°55.923 1.1 228 16.4 100730 83
2001-08-31 07:25:06 51°13.677 2°55.922 0.8 250 16.4 100730 83
2001-08-31 07:25:10 51°13.677 2°55.922 0.7 250 16.4 100730 83
2001-08-31 07:25:16 51°13.677 2°55.923 0.9 250 16.4 100730 83
2001-08-31 07:25:20 51°13.677 2°55.923 0.8 250 16.4 100730 83
2001-08-31 07:25:26 51°13.677 2°55.922 0.9 251 16.4 100730 83
2001-08-31 07:25:30 51°13.677 2°55.922 0.8 250 16.4 100730 83
2001-08-31 07:25:36 51°13.677 2°55.923 0.9 251 16.4 100730 83
2001-08-31 07:25:40 51°13.677 2°55.923 0.8 251 16.4 100730 83
2001-08-31 07:25:46 51°13.677 2°55.923 0.8 250 16.4 100730 83
2001-08-31 07:25:50 51°13.677 2°55.923 0.9 250 16.4 100730 83
2001-08-31 07:25:56 51°13.677 2°55.923 0.7 245 16.4 100730 83
2001-08-31 07:26:00 51°13.677 2°55.923 0.7 245 16.4 100730 83
2001-08-31 07:26:06 51°13.677 2°55.923 0.8 242 16.4 100730 83
2001-08-31 07:26:10 51°13.677 2°55.923 0.6 228 16.4 100730 83
2001-08-31 07:26:16 51°13.677 2°55.923 0.5 227 16.4 100730 83
2001-08-31 07:26:20 51°13.677 2°55.923 0.5 227 16.4 100730 83
2001-08-31 07:26:26 51°13.677 2°55.923 0.7 249 16.4 100730 83
2001-08-31 07:26:30 51°13.678 2°55.923 0.8 242 16.4 100730 83
2001-08-31 07:26:36 51°13.678 2°55.923 0.7 225 16.4 100730 83
2001-08-31 07:26:40 51°13.678 2°55.924 0.8 213 16.4 100730 83
2001-08-31 07:26:46 51°13.678 2°55.924 1.2 225 16.4 100730 83
2001-08-31 07:26:50 51°13.678 2°55.925 1.3 230 16.4 100730 83
2001-08-31 07:26:56 51°13.679 2°55.925 1.6 225 16.4 100730 83
2001-08-31 07:27:00 51°13.679 2°55.925 1.8 226 16.4 100730 83
2001-08-31 07:27:06 51°13.679 2°55.925 1.6 224 16.4 100730 83
2001-08-31 07:27:10 51°13.679 2°55.925 1.6 237 16.4 100730 83
2001-08-31 07:27:16 51°13.679 2°55.925 1.6 224 16.4 100730 83
2001-08-31 07:27:20 51°13.679 2°55.925 1.7 220 16.4 100730 83
2001-08-31 07:27:26 51°13.678 2°55.925 1.5 204 16.4 100730 83
2001-08-31 07:27:30 51°13.678 2°55.925 1.2 214 16.4 100730 83
2001-08-31 07:27:36 51°13.678 2°55.925 1.5 223 16.4 100730 83
2001-08-31 07:27:40 51°13.678 2°55.925 1.4 213 16.4 100730 83
2001-08-31 07:27:46 51°13.678 2°55.925 1.2 222 16.4 100730 83
2001-08-31 07:27:50 51°13.678 2°55.925 1.6 230 16.4 100730 83
2001-08-31 07:27:56 51°13.678 2°55.925 1.5 223 16.4 100730 83
2001-08-31 07:28:00 51°13.678 2°55.925 1.5 207 16.4 100730 83
2001-08-31 07:28:06 51°13.678 2°55.925 1.7 202 16.4 100730 83
2001-08-31 07:28:10 51°13.678 2°55.925 1.6 209 16.4 100730 83
2001-08-31 07:28:16 51°13.678 2°55.925 1.6 205 16.4 100730 83
2001-08-31 07:28:20 51°13.678 2°55.925 1.6 221 16.4 100730 83
2001-08-31 07:28:26 51°13.678 2°55.925 1.4 228 16.4 100730 83
2001-08-31 07:28:30 51°13.678 2°55.925 1.3 227 16.3 100730 83
2001-08-31 07:28:36 51°13.678 2°55.925 1.5 234 16.3 100730 83
2001-08-31 07:28:40 51°13.678 2°55.925 1.3 224 16.3 100730 83
2001-08-31 07:28:46 51°13.678 2°55.925 1.7 237 16.3 100730 83
2001-08-31 07:28:50 51°13.678 2°55.925 1.2 225 16.3 100730 83
2001-08-31 07:28:56 51°13.678 2°55.925 1.3 217 16.3 100730 83
2001-08-31 07:29:00 51°13.678 2°55.925 1.2 216 16.3 100730 83
2001-08-31 07:29:06 51°13.678 2°55.925 0.9 215 16.3 100730 83
2001-08-31 07:29:10 51°13.678 2°55.925 1.1 217 16.3 100730 83
2001-08-31 07:29:16 51°13.678 2°55.925 1.5 225 16.3 100730 83
2001-08-31 07:29:20 51°13.678 2°55.925 1.3 224 16.3 100730 83
2001-08-31 07:29:26 51°13.678 2°55.925 1.7 211 16.3 100730 83
2001-08-31 07:29:30 51°13.678 2°55.925 1.6 216 16.3 100730 83
2001-08-31 07:29:36 51°13.678 2°55.925 1.7 206 16.3 100730 83
2001-08-31 07:29:40 51°13.678 2°55.925 1.7 207 16.3 100730 83
2001-08-31 07:29:46 51°13.678 2°55.925 1.4 209 16.3 100730 83
2001-08-31 07:29:50 51°13.678 2°55.925 1.3 212 16.3 100730 83
2001-08-31 07:29:56 51°13.678 2°55.925 1.4 209 16.3 100730 83
2001-08-31 07:30:00 51°13.678 2°55.925 1.3 225 16.3 100730 83
2001-08-31 07:30:06 51°13.678 2°55.925 1.2 220 16.3 100730 83
2001-08-31 07:30:10 51°13.677 2°55.925 1.3 237 16.3 100730 83
2001-08-31 07:30:16 51°13.677 2°55.925 1.4 242 16.3 100730 83
2001-08-31 07:30:20 51°13.677 2°55.925 1.5 241 16.3 100730 83
2001-08-31 07:30:26 51°13.678 2°55.925 1.3 229 16.3 100730 83
2001-08-31 07:30:30 51°13.678 2°55.925 1.7 217 16.3 100730 83
2001-08-31 07:30:36 51°13.678 2°55.925 1.7 246 16.3 100730 83
2001-08-31 07:30:40 51°13.678 2°55.925 1.6 247 16.3 100730 83
2001-08-31 07:30:46 51°13.678 2°55.925 1.7 225 16.3 100730 83
2001-08-31 07:30:50 51°13.678 2°55.925 1.8 222 16.3 100730 83
2001-08-31 07:30:56 51°13.678 2°55.925 1.1 215 16.3 100730 83
2001-08-31 07:31:00 51°13.678 2°55.925 1 211 16.3 100730 83
2001-08-31 07:31:06 51°13.677 2°55.925 1.3 220 16.3 100730 83
2001-08-31 07:31:10 51°13.677 2°55.925 1.4 225 16.3 100730 83
2001-08-31 07:31:16 51°13.677 2°55.925 1.3 221 16.3 100730 83
2001-08-31 07:31:20 51°13.677 2°55.925 1.3 210 16.3 100730 83
2001-08-31 07:31:26 51°13.677 2°55.925 1.4 208 16.3 100730 83
2001-08-31 07:31:30 51°13.677 2°55.925 0.9 213 16.3 100730 83
2001-08-31 07:31:36 51°13.677 2°55.925 0.9 219 16.3 100730 83
2001-08-31 07:31:40 51°13.677 2°55.925 1 215 16.3 100730 83
2001-08-31 07:31:46 51°13.677 2°55.925 0.9 225 16.3 100730 83
2001-08-31 07:31:50 51°13.677 2°55.925 0.7 212 16.3 100730 83
2001-08-31 07:31:56 51°13.677 2°55.925 0.6 215 16.3 100730 83
2001-08-31 07:32:02 51°13.677 2°55.925 0.7 223 16.3 100730 83
2001-08-31 07:32:06 51°13.677 2°55.925 1 310 16.3 100730 83
2001-08-31 07:32:10 51°13.677 2°55.925 0.8 289 16.3 100730 83
2001-08-31 07:32:16 51°13.677 2°55.925 0.9 249 16.3 100730 83
2001-08-31 07:32:20 51°13.677 2°55.925 0.9 281 16.3 100730 83
2001-08-31 07:32:26 51°13.677 2°55.925 0.5 271 16.3 100730 83
2001-08-31 07:32:30 51°13.677 2°55.925 0.4 320 16.3 100730 83
2001-08-31 07:32:36 51°13.677 2°55.925 0.5 320 16.3 100730 83
2001-08-31 07:32:40 51°13.677 2°55.925 0.4 321 16.3 100730 83
2001-08-31 07:32:46 51°13.677 2°55.925 0.3 341 16.3 100730 83
2001-08-31 07:32:50 51°13.677 2°55.925 0.3 341 16.3 100730 83
2001-08-31 07:32:56 51°13.677 2°55.925 0.1 341 16.3 100730 83
2001-08-31 07:33:00 51°13.677 2°55.925 0.1 341 16.3 100730 84
2001-08-31 07:33:06 51°13.677 2°55.925 0.4 329 16.3 100730 84
2001-08-31 07:33:10 51°13.677 2°55.924 0.6 329 16.4 100730 84
2001-08-31 07:33:16 51°13.677 2°55.924 0.5 328 16.4 100730 84
2001-08-31 07:33:20 51°13.677 2°55.924 0.8 315 16.4 100730 84
2001-08-31 07:33:26 51°13.677 2°55.924 1.1 314 16.4 100730 84
2001-08-31 07:33:30 51°13.677 2°55.924 1.1 315 16.4 100730 84
2001-08-31 07:33:36 51°13.677 2°55.924 1 310 16.4 100730 84
2001-08-31 07:33:40 51°13.677 2°55.924 0.8 300 16.4 100730 84
2001-08-31 07:33:46 51°13.677 2°55.924 0.7 293 16.4 100730 84
2001-08-31 07:33:50 51°13.677 2°55.924 0.6 290 16.4 100730 84
2001-08-31 07:33:56 51°13.677 2°55.924 0.7 272 16.4 100730 84
2001-08-31 07:34:00 51°13.677 2°55.924 0.7 272 16.4 100730 84
2001-08-31 07:34:06 51°13.677 2°55.924 0.7 272 16.4 100730 84
2001-08-31 07:34:10 51°13.677 2°55.924 0.8 275 16.4 100730 84
2001-08-31 07:34:16 51°13.677 2°55.924 0.7 277 16.4 100730 84
2001-08-31 07:34:20 51°13.677 2°55.924 0.7 306 16.3 100730 84
2001-08-31 07:34:26 51°13.677 2°55.924 1 307 16.3 100730 84
2001-08-31 07:34:30 51°13.676 2°55.924 0.9 277 16.3 100730 84
2001-08-31 07:34:36 51°13.676 2°55.924 1.5 274 16.3 100730 84
2001-08-31 07:34:40 51°13.676 2°55.924 1 293 16.3 100730 84
2001-08-31 07:34:46 51°13.676 2°55.924 1.1 282 16.3 100730 84
2001-08-31 07:34:50 51°13.676 2°55.924 1.4 269 16.3 100730 84
2001-08-31 07:34:56 51°13.676 2°55.924 1.6 272 16.3 100730 84
2001-08-31 07:35:00 51°13.676 2°55.924 1.5 248 16.3 100730 84
2001-08-31 07:35:06 51°13.676 2°55.924 1.3 257 16.3 100730 84
2001-08-31 07:35:10 51°13.676 2°55.924 1.2 248 16.3 100730 84
2001-08-31 07:35:16 51°13.676 2°55.924 1.1 251 16.3 100730 84
2001-08-31 07:35:20 51°13.676 2°55.924 1 234 16.3 100730 84
2001-08-31 07:35:26 51°13.676 2°55.924 0.9 242 16.3 100730 84
2001-08-31 07:35:30 51°13.676 2°55.924 1 245 16.2 100730 84
2001-08-31 07:35:36 51°13.676 2°55.924 1 229 16.2 100730 84
2001-08-31 07:35:40 51°13.676 2°55.924 1.1 244 16.2 100720 85
2001-08-31 07:35:46 51°13.676 2°55.924 0.7 242 16.2 100720 85
2001-08-31 07:35:50 51°13.676 2°55.924 0.8 246 16.2 100720 85
2001-08-31 07:35:56 51°13.676 2°55.924 0.8 248 16.2 100720 85
2001-08-31 07:36:00 51°13.676 2°55.924 0.9 250 16.2 100730 85
2001-08-31 07:36:06 51°13.676 2°55.924 0.9 264 16.2 100730 85
2001-08-31 07:36:10 51°13.676 2°55.924 0.8 269 16.2 100730 85
2001-08-31 07:36:16 51°13.676 2°55.924 0.8 268 16.2 100730 85
2001-08-31 07:36:20 51°13.676 2°55.924 1 265 16.2 100730 85
2001-08-31 07:36:26 51°13.676 2°55.924 0.8 269 16.2 100730 85
2001-08-31 07:36:30 51°13.676 2°55.924 0.9 266 16.1 100730 85
2001-08-31 07:36:36 51°13.675 2°55.924 0.9 254 16.1 100730 85
2001-08-31 07:36:40 51°13.675 2°55.924 1 250 16.1 100730 85
2001-08-31 07:36:46 51°13.675 2°55.924 1 255 16.1 100730 85
2001-08-31 07:36:50 51°13.675 2°55.924 1.2 274 16.1 100730 85
2001-08-31 07:36:56 51°13.675 2°55.924 1.1 275 16.1 100730 85
2001-08-31 07:37:00 51°13.675 2°55.924 0.9 278 16.1 100730 85
2001-08-31 07:37:06 51°13.675 2°55.923 0.9 277 16.1 100730 85
2001-08-31 07:37:10 51°13.675 2°55.923 0.7 275 16.1 100730 85
2001-08-31 07:37:16 51°13.675 2°55.923 0.8 275 16.1 100730 85
2001-08-31 07:37:20 51°13.675 2°55.923 0.6 275 16.1 100730 85
2001-08-31 07:37:26 51°13.675 2°55.923 0.6 275 16.1 100730 85
2001-08-31 07:37:30 51°13.675 2°55.923 0.8 281 16.1 100730 85
2001-08-31 07:37:36 51°13.674 2°55.923 1 270 16.1 100730 85
2001-08-31 07:37:40 51°13.674 2°55.923 1 270 16.1 100730 85
2001-08-31 07:37:46 51°13.674 2°55.923 1 252 16.1 100730 85
2001-08-31 07:37:50 51°13.674 2°55.923 1 251 16.1 100730 85
2001-08-31 07:37:56 51°13.674 2°55.923 1 265 16.1 100730 85
2001-08-31 07:38:00 51°13.674 2°55.923 1.2 270 16 100720 86
2001-08-31 07:38:06 51°13.674 2°55.923 1.2 264 16 100720 86
2001-08-31 07:38:10 51°13.674 2°55.923 1.2 268 16.1 100730 86
2001-08-31 07:38:16 51°13.674 2°55.923 1.3 261 16.1 100730 86
2001-08-31 07:38:20 51°13.674 2°55.923 1.4 272 16.1 100730 86
2001-08-31 07:38:26 51°13.674 2°55.922 1.1 233 16.1 100730 86
2001-08-31 07:38:30 51°13.674 2°55.922 1.1 253 16.1 100720 86
2001-08-31 07:38:36 51°13.674 2°55.919 1 236 16.1 100720 86
2001-08-31 07:38:40 51°13.674 2°55.916 1.2 211 16.1 100730 86
2001-08-31 07:38:46 51°13.674 2°55.911 1.2 210 16.1 100730 86
2001-08-31 07:38:50 51°13.674 2°55.907 1.2 199 16.1 100720 86
2001-08-31 07:38:57 51°13.675 2°55.899 1.2 197 16.1 100720 86
2001-08-31 07:39:02 51°13.675 2°55.892 1.3 206 16 100720 86
2001-08-31 07:39:06 51°13.675 2°55.886 2.3 201 16 100720 86
2001-08-31 07:39:12 51°13.676 2°55.876 2.4 193 16 100720 86
2001-08-31 07:39:16 51°13.676 2°55.869 2.4 197 16 100720 86
2001-08-31 07:39:22 51°13.676 2°55.858 2.5 200 16 100730 86
2001-08-31 07:39:26 51°13.676 2°55.851 2.5 199 16 100730 86
2001-08-31 07:39:32 51°13.675 2°55.841 2.2 201 16 100720 86
2001-08-31 07:39:36 51°13.675 2°55.835 2.2 197 16 100720 86
2001-08-31 07:39:42 51°13.675 2°55.826 2.3 199 16 100720 86
2001-08-31 07:39:46 51°13.674 2°55.82 2.1 200 16 100720 86
2001-08-31 07:39:52 51°13.674 2°55.811 2.2 208 16 100720 86
2001-08-31 07:39:56 51°13.673 2°55.806 2 202 16 100720 86
2001-08-31 07:40:00 51°13.673 2°55.8 1.9 201 16 100730 87
2001-08-31 07:40:06 51°13.672 2°55.793 1.9 208 16 100730 87
2001-08-31 07:40:11 51°13.671 2°55.788 1.7 208 16 100720 87
2001-08-31 07:40:16 51°13.67 2°55.783 1.9 204 16 100720 87
2001-08-31 07:40:20 51°13.67 2°55.779 2.2 206 16 100720 87
2001-08-31 07:40:26 51°13.669 2°55.772 1.6 207 16 100720 87
2001-08-31 07:40:30 51°13.669 2°55.768 1.6 205 16 100720 87
2001-08-31 07:40:36 51°13.67 2°55.766 0.9 209 16 100720 87
2001-08-31 07:40:40 51°13.67 2°55.766 0.7 213 16 100720 87
2001-08-31 07:40:46 51°13.672 2°55.767 0.5 226 16 100720 87
2001-08-31 07:40:50 51°13.674 2°55.77 0.5 238 16 100720 87
2001-08-31 07:40:56 51°13.678 2°55.774 0.3 258 16 100720 87
2001-08-31 07:41:00 51°13.682 2°55.776 0.1 258 16 100720 87
2001-08-31 07:41:06 51°13.686 2°55.779 0.1 258 16 100720 87
2001-08-31 07:41:10 51°13.689 2°55.781 0.1 252 16 100720 87
2001-08-31 07:41:16 51°13.693 2°55.782 0.1 182 16 100720 87
2001-08-31 07:41:20 51°13.694 2°55.783 0.5 165 16 100720 87
2001-08-31 07:41:26 51°13.695 2°55.784 1.1 173 16 100720 87
2001-08-31 07:41:30 51°13.695 2°55.784 1 185 16 100720 87
2001-08-31 07:41:36 51°13.694 2°55.783 1.3 187 16 100720 87
2001-08-31 07:41:40 51°13.692 2°55.783 1.1 134 16 100720 87
2001-08-31 07:41:46 51°13.691 2°55.783 0.8 128 16 100720 87
2001-08-31 07:41:52 51°13.69 2°55.782 0.9 142 16 100720 87
2001-08-31 07:41:57 51°13.691 2°55.782 0.9 129 16 100720 87
2001-08-31 07:42:02 51°13.693 2°55.782 0.4 84 16 100720 87
2001-08-31 07:42:06 51°13.695 2°55.781 0.3 80 16 100720 87
2001-08-31 07:42:12 51°13.7 2°55.779 0.7 50 16 100730 87
2001-08-31 07:42:16 51°13.704 2°55.776 1.7 23 16 100730 87
2001-08-31 07:42:20 51°13.709 2°55.772 2.7 22 16 100720 87
2001-08-31 07:42:26 51°13.716 2°55.765 2.7 22 16 100720 87
2001-08-31 07:42:30 51°13.721 2°55.76 3.5 11 16 100720 87
2001-08-31 07:42:36 51°13.729 2°55.751 3.6 18 16 100720 87
2001-08-31 07:42:40 51°13.735 2°55.745 3.5 15 16 100720 87
2001-08-31 07:42:46 51°13.744 2°55.735 3.9 20 16 100720 87
2001-08-31 07:42:50 51°13.75 2°55.728 4.1 21 16 100720 87
2001-08-31 07:42:56 51°13.759 2°55.718 4 19 16 100720 87
2001-08-31 07:43:00 51°13.764 2°55.711 3.7 7 16 100720 87
2001-08-31 07:43:06 51°13.773 2°55.7 4.1 12 16 100720 87
2001-08-31 07:43:10 51°13.78 2°55.693 4.8 4 16 100720 87
2001-08-31 07:43:16 51°13.79 2°55.682 3.9 1 16 100720 87
2001-08-31 07:43:20 51°13.797 2°55.675 3.7 10 16 100720 87
2001-08-31 07:43:26 51°13.806 2°55.664 4.3 10 16 100720 87
2001-08-31 07:43:30 51°13.813 2°55.657 3.3 356 16 100720 87
2001-08-31 07:43:36 51°13.824 2°55.647 4.8 12 16 100720 87
2001-08-31 07:43:40 51°13.831 2°55.641 5.7 28 16 100720 87
2001-08-31 07:43:46 51°13.842 2°55.631 4.6 14 16 100720 87
2001-08-31 07:43:50 51°13.849 2°55.625 3.8 3 16 100720 86
2001-08-31 07:43:56 51°13.86 2°55.616 4.6 13 16 100720 86
2001-08-31 07:44:00 51°13.868 2°55.611 5.5 11 16 100720 86
2001-08-31 07:44:06 51°13.879 2°55.602 6.2 36 16 100720 86
2001-08-31 07:44:10 51°13.887 2°55.596 5.7 21 16 100720 86
2001-08-31 07:44:16 51°13.898 2°55.587 4.7 21 16 100720 86
2001-08-31 07:44:20 51°13.906 2°55.582 4.2 13 16 100720 86
2001-08-31 07:44:26 51°13.918 2°55.573 5.4 15 16 100720 86
2001-08-31 07:44:30 51°13.926 2°55.567 5.4 14 16 100720 86
2001-08-31 07:44:36 51°13.938 2°55.557 5 12 16 100720 86
2001-08-31 07:44:40 51°13.946 2°55.551 5.3 23 16 100720 86
2001-08-31 07:44:46 51°13.958 2°55.542 3.9 13 16 100720 86
2001-08-31 07:44:50 51°13.966 2°55.537 4.6 22 16 100720 86
2001-08-31 07:44:56 51°13.977 2°55.529 4.4 17 16 100720 86
2001-08-31 07:45:00 51°13.984 2°55.524 4.3 5 16 100720 86
2001-08-31 07:45:06 51°13.994 2°55.517 3.9 14 16 100720 86
2001-08-31 07:45:10 51°14.001 2°55.512 3.5 11 16 100720 86
2001-08-31 07:45:16 51°14.011 2°55.505 3.6 5 16 100720 86
2001-08-31 07:45:20 51°14.018 2°55.5 3.8 7 16 100720 86
2001-08-31 07:45:26 51°14.027 2°55.494 5.7 23 16 100720 86
2001-08-31 07:45:30 51°14.034 2°55.49 5.1 26 16.1 100720 85
2001-08-31 07:45:36 51°14.043 2°55.484 4.8 21 16.1 100720 85
2001-08-31 07:45:40 51°14.049 2°55.48 4.9 27 16.1 100730 85
2001-08-31 07:45:46 51°14.058 2°55.474 4.3 19 16.1 100730 85
2001-08-31 07:45:50 51°14.064 2°55.47 4.8 14 16.1 100720 85
2001-08-31 07:45:56 51°14.072 2°55.463 4.4 24 16.1 100720 85
2001-08-31 07:46:00 51°14.078 2°55.459 4.5 357 16.1 100720 85
2001-08-31 07:46:06 51°14.086 2°55.453 5.2 15 16.1 100720 85
2001-08-31 07:46:10 51°14.092 2°55.449 6 32 16.1 100720 85
2001-08-31 07:46:16 51°14.101 2°55.442 5.3 12 16.1 100720 85
2001-08-31 07:46:20 51°14.107 2°55.438 6.1 25 16.1 100720 85
2001-08-31 07:46:26 51°14.116 2°55.431 5.9 17 16.1 100720 85
2001-08-31 07:46:30 51°14.122 2°55.426 7.5 26 16.1 100720 85
2001-08-31 07:46:36 51°14.132 2°55.418 8 26 16.1 100720 85
2001-08-31 07:46:40 51°14.139 2°55.412 7.7 28 16.1 100720 85
2001-08-31 07:46:46 51°14.148 2°55.403 7.1 20 16.1 100720 85
2001-08-31 07:46:50 51°14.155 2°55.397 7.7 29 16.1 100720 85
2001-08-31 07:46:56 51°14.165 2°55.387 6.6 21 16.1 100720 85
2001-08-31 07:47:00 51°14.172 2°55.379 6.8 21 16.1 100710 84
2001-08-31 07:47:06 51°14.183 2°55.368 7.2 19 16.1 100710 84
2001-08-31 07:47:10 51°14.19 2°55.36 7.2 15 16.2 100720 84
2001-08-31 07:47:16 51°14.201 2°55.347 8.1 20 16.2 100720 84
2001-08-31 07:47:20 51°14.208 2°55.338 8.3 18 16.2 100720 84
2001-08-31 07:47:26 51°14.219 2°55.323 8 24 16.2 100720 84
2001-08-31 07:47:30 51°14.226 2°55.313 7.4 14 16.2 100720 83
2001-08-31 07:47:36 51°14.237 2°55.297 8.7 7 16.2 100720 83
2001-08-31 07:47:40 51°14.244 2°55.286 7.9 359 16.2 100720 83
2001-08-31 07:47:46 51°14.256 2°55.268 8.4 8 16.2 100720 83
2001-08-31 07:47:50 51°14.263 2°55.256 8.2 7 16.2 100720 84
2001-08-31 07:47:56 51°14.275 2°55.238 9.7 12 16.2 100720 84
2001-08-31 07:48:00 51°14.282 2°55.224 9.2 12 16.2 100720 84
2001-08-31 07:48:06 51°14.294 2°55.205 9.6 12 16.2 100720 84
2001-08-31 07:48:10 51°14.301 2°55.191 9.5 6 16.2 100720 84
2001-08-31 07:48:16 51°14.313 2°55.17 9.7 6 16.2 100720 84
2001-08-31 07:48:20 51°14.321 2°55.156 9.9 12 16.3 100710 83
2001-08-31 07:48:26 51°14.334 2°55.134 10.3 11 16.3 100710 83
2001-08-31 07:48:30 51°14.342 2°55.12 11.2 10 16.2 100710 83
2001-08-31 07:48:36 51°14.354 2°55.098 11.7 14 16.2 100710 83
2001-08-31 07:48:40 51°14.363 2°55.083 11.3 11 16.3 100710 83
2001-08-31 07:48:46 51°14.376 2°55.061 11.8 10 16.3 100710 83
2001-08-31 07:48:50 51°14.384 2°55.045 12.2 11 16.3 100710 83
2001-08-31 07:48:56 51°14.397 2°55.022 12.8 13 16.3 100710 83
2001-08-31 07:49:00 51°14.406 2°55.007 10.9 11 16.3 100710 82
2001-08-31 07:49:06 51°14.42 2°54.984 12.1 13 16.3 100710 82
2001-08-31 07:49:10 51°14.429 2°54.969 11.4 10 16.3 100710 82
2001-08-31 07:49:16 51°14.445 2°54.948 11 10 16.3 100710 82
2001-08-31 07:49:20 51°14.455 2°54.933 10.3 7 16.3 100700 81
2001-08-31 07:49:26 51°14.47 2°54.912 11.1 11 16.3 100700 81
2001-08-31 07:49:30 51°14.48 2°54.898 11.1 13 16.3 100700 81
2001-08-31 07:49:36 51°14.495 2°54.878 11.2 9 16.3 100700 81
2001-08-31 07:49:40 51°14.505 2°54.864 11.6 12 16.3 100710 80
2001-08-31 07:49:46 51°14.52 2°54.843 11.9 10 16.3 100710 80
2001-08-31 07:49:50 51°14.531 2°54.83 12.4 17 16.3 100700 80
2001-08-31 07:49:56 51°14.547 2°54.811 12.8 15 16.3 100700 80
2001-08-31 07:50:00 51°14.557 2°54.798 12.4 14 16.3 100710 80
2001-08-31 07:50:06 51°14.574 2°54.78 13 15 16.3 100710 80
2001-08-31 07:50:10 51°14.584 2°54.768 12.6 15 16.3 100700 80
2001-08-31 07:50:16 51°14.6 2°54.749 13.2 13 16.3 100700 80
2001-08-31 07:50:20 51°14.611 2°54.737 12.9 14 16.3 100700 80
2001-08-31 07:50:26 51°14.627 2°54.718 12.2 16 16.3 100700 80
2001-08-31 07:50:30 51°14.638 2°54.706 13.3 18 16.4 100700 81
2001-08-31 07:50:36 51°14.655 2°54.688 12.5 20 16.4 100700 81
2001-08-31 07:50:40 51°14.666 2°54.676 13.3 19 16.4 100700 81
2001-08-31 07:50:46 51°14.682 2°54.659 12.6 20 16.4 100700 81
2001-08-31 07:50:50 51°14.694 2°54.648 14.3 21 16.4 100700 80
2001-08-31 07:50:56 51°14.711 2°54.632 13 20 16.4 100700 80
2001-08-31 07:51:00 51°14.722 2°54.621 13.5 17 16.5 100700 80
2001-08-31 07:51:06 51°14.74 2°54.606 14 20 16.5 100700 80
2001-08-31 07:51:10 51°14.751 2°54.596 13.1 19 16.5 100700 81
2001-08-31 07:51:16 51°14.769 2°54.581 13.4 20 16.5 100700 81
2001-08-31 07:51:20 51°14.781 2°54.572 12.3 23 16.5 100690 81
2001-08-31 07:51:26 51°14.799 2°54.557 13.2 18 16.5 100690 81
2001-08-31 07:51:30 51°14.81 2°54.548 12.5 17 16.5 100690 80
2001-08-31 07:51:36 51°14.828 2°54.533 13.2 18 16.5 100690 80
2001-08-31 07:51:40 51°14.84 2°54.524 13.6 18 16.5 100700 80
2001-08-31 07:51:46 51°14.857 2°54.51 12.6 21 16.5 100700 80
2001-08-31 07:51:50 51°14.869 2°54.501 13.2 23 16.5 100690 80
2001-08-31 07:51:56 51°14.887 2°54.486 13.1 23 16.5 100690 80
2001-08-31 07:52:00 51°14.899 2°54.476 12.6 21 16.5 100700 80
2001-08-31 07:52:06 51°14.917 2°54.462 13.8 23 16.5 100700 80
2001-08-31 07:52:10 51°14.929 2°54.452 13.2 22 16.5 100700 80
2001-08-31 07:52:16 51°14.946 2°54.438 13.4 27 16.5 100700 80
2001-08-31 07:52:20 51°14.958 2°54.428 13.1 26 16.6 100700 80
2001-08-31 07:52:26 51°14.976 2°54.412 13.1 21 16.6 100700 80
2001-08-31 07:52:30 51°14.988 2°54.402 14 17 16.6 100700 81
2001-08-31 07:52:36 51°15.006 2°54.387 13.1 23 16.6 100700 81
2001-08-31 07:52:40 51°15.018 2°54.377 13.9 22 16.6 100690 81
2001-08-31 07:52:46 51°15.036 2°54.361 14.2 18 16.6 100690 81
2001-08-31 07:52:50 51°15.048 2°54.351 13.9 18 16.7 100700 82
2001-08-31 07:52:56 51°15.066 2°54.336 13.8 15 16.7 100700 82
2001-08-31 07:53:00 51°15.078 2°54.326 14.2 20 16.7 100700 82
2001-08-31 07:53:06 51°15.096 2°54.311 13.9 23 16.7 100700 82
2001-08-31 07:53:10 51°15.108 2°54.301 14.3 16 16.7 100700 80
2001-08-31 07:53:16 51°15.126 2°54.286 14.9 18 16.7 100700 80
2001-08-31 07:53:20 51°15.137 2°54.275 14.6 18 16.6 100690 80
2001-08-31 07:53:26 51°15.156 2°54.26 15.6 20 16.6 100690 80
2001-08-31 07:53:30 51°15.167 2°54.249 14.3 14 16.6 100700 81
2001-08-31 07:53:36 51°15.186 2°54.234 14.8 15 16.6 100700 81
2001-08-31 07:53:40 51°15.198 2°54.223 14 17 16.6 100690 80
2001-08-31 07:53:46 51°15.217 2°54.207 14.7 18 16.6 100690 80
2001-08-31 07:53:50 51°15.229 2°54.196 14.6 15 16.6 100690 81
2001-08-31 07:53:56 51°15.248 2°54.18 15 16 16.6 100690 81
2001-08-31 07:54:00 51°15.26 2°54.169 14.3 17 16.6 100690 80
2001-08-31 07:54:06 51°15.279 2°54.153 15.2 16 16.6 100690 80
2001-08-31 07:54:10 51°15.291 2°54.142 13.9 14 16.6 100690 80
2001-08-31 07:54:16 51°15.311 2°54.125 14.1 12 16.6 100690 80
2001-08-31 07:54:20 51°15.323 2°54.114 15.3 16 16.6 100690 80
2001-08-31 07:54:26 51°15.342 2°54.097 15.8 12 16.6 100690 80
2001-08-31 07:54:30 51°15.355 2°54.086 15.6 16 16.6 100690 80
2001-08-31 07:54:36 51°15.374 2°54.07 15.2 19 16.6 100690 80
2001-08-31 07:54:40 51°15.387 2°54.059 15.5 21 16.6 100700 81
2001-08-31 07:54:46 51°15.406 2°54.042 13.7 22 16.6 100700 81
2001-08-31 07:54:50 51°15.418 2°54.03 14.5 19 16.6 100690 80
2001-08-31 07:54:56 51°15.437 2°54.013 15.6 22 16.6 100690 80
2001-08-31 07:55:00 51°15.45 2°54.001 14.5 17 16.6 100690 80
2001-08-31 07:55:06 51°15.469 2°53.984 15.8 18 16.6 100690 80
2001-08-31 07:55:10 51°15.482 2°53.972 15.4 20 16.6 100690 81
2001-08-31 07:55:16 51°15.501 2°53.955 14.2 18 16.6 100690 81
2001-08-31 07:55:20 51°15.513 2°53.944 15.5 15 16.6 100690 82
2001-08-31 07:55:26 51°15.532 2°53.926 14.9 18 16.6 100690 82
2001-08-31 07:55:30 51°15.545 2°53.915 16 20 16.6 100690 82
2001-08-31 07:55:36 51°15.564 2°53.897 15.9 17 16.6 100690 82
2001-08-31 07:55:40 51°15.576 2°53.886 15 13 16.6 100690 82
2001-08-31 07:55:46 51°15.595 2°53.868 15.2 15 16.6 100690 82
2001-08-31 07:55:50 51°15.608 2°53.856 15.2 15 16.6 100690 82
2001-08-31 07:55:56 51°15.626 2°53.838 14.6 13 16.6 100690 82
2001-08-31 07:56:00 51°15.639 2°53.826 15.7 16 16.7 100680 82
2001-08-31 07:56:06 51°15.658 2°53.808 15 18 16.7 100680 82
2001-08-31 07:56:10 51°15.67 2°53.797 15.4 16 16.6 100690 81
2001-08-31 07:56:16 51°15.689 2°53.779 15.9 15 16.6 100690 81
2001-08-31 07:56:20 51°15.702 2°53.768 15.3 12 16.6 100690 81
2001-08-31 07:56:26 51°15.72 2°53.75 15.7 14 16.6 100690 81
2001-08-31 07:56:30 51°15.733 2°53.739 15.7 18 16.6 100690 81
2001-08-31 07:56:36 51°15.752 2°53.721 14.2 13 16.6 100690 81
2001-08-31 07:56:40 51°15.764 2°53.709 16.4 15 16.6 100680 81
2001-08-31 07:56:46 51°15.783 2°53.691 15.6 13 16.6 100680 81
2001-08-31 07:56:50 51°15.796 2°53.679 15.5 13 16.6 100690 82
2001-08-31 07:56:56 51°15.814 2°53.661 15.3 12 16.6 100690 82
2001-08-31 07:57:00 51°15.827 2°53.649 16.4 13 16.6 100690 83
2001-08-31 07:57:06 51°15.845 2°53.631 17 14 16.6 100690 83
2001-08-31 07:57:10 51°15.858 2°53.619 17.3 11 16.6 100690 83
2001-08-31 07:57:16 51°15.876 2°53.602 16.6 11 16.6 100690 83
2001-08-31 07:57:20 51°15.889 2°53.59 16.4 11 16.6 100690 83
2001-08-31 07:57:26 51°15.907 2°53.573 16.6 12 16.6 100690 83
2001-08-31 07:57:30 51°15.92 2°53.561 16.7 11 16.5 100680 82
2001-08-31 07:57:36 51°15.938 2°53.544 15.4 8 16.5 100680 82
2001-08-31 07:57:40 51°15.951 2°53.532 16.9 11 16.5 100680 81
2001-08-31 07:57:46 51°15.969 2°53.514 15.3 13 16.5 100680 81
2001-08-31 07:57:50 51°15.982 2°53.503 15.4 14 16.4 100680 81
2001-08-31 07:57:56 51°16 2°53.485 15.9 13 16.4 100680 81
2001-08-31 07:58:00 51°16.013 2°53.474 15.2 14 16.4 100680 81
2001-08-31 07:58:06 51°16.031 2°53.457 16.1 13 16.4 100680 81
2001-08-31 07:58:10 51°16.044 2°53.445 16.2 13 16.3 100720 81
2001-08-31 07:58:16 51°16.062 2°53.428 15.2 14 16.3 100720 81
2001-08-31 07:58:20 51°16.075 2°53.417 15.1 12 16.3 100700 81
2001-08-31 07:58:26 51°16.094 2°53.4 15.6 13 16.3 100700 81
2001-08-31 07:58:30 51°16.106 2°53.388 16.7 13 16.3 100690 81
2001-08-31 07:58:36 51°16.125 2°53.37 13.7 12 16.3 100690 81
2001-08-31 07:58:40 51°16.137 2°53.358 14.5 12 16.2 100710 80
2001-08-31 07:58:46 51°16.156 2°53.342 16.7 10 16.2 100710 80
2001-08-31 07:58:50 51°16.168 2°53.33 16.2 13 16.2 100710 80
2001-08-31 07:58:56 51°16.187 2°53.313 16 14 16.2 100710 80
2001-08-31 07:59:00 51°16.199 2°53.302 15.1 12 16.2 100700 82
2001-08-31 07:59:06 51°16.218 2°53.285 15.8 13 16.2 100700 82
2001-08-31 07:59:10 51°16.231 2°53.273 13.7 14 16.2 100710 81
2001-08-31 07:59:16 51°16.25 2°53.256 15.1 10 16.2 100710 81
2001-08-31 07:59:20 51°16.262 2°53.244 15.6 11 16.2 100710 81
2001-08-31 07:59:26 51°16.281 2°53.226 14.9 12 16.2 100710 81
2001-08-31 07:59:30 51°16.293 2°53.215 13.9 12 16.2 100710 81
2001-08-31 07:59:36 51°16.312 2°53.198 14.3 14 16.2 100710 81
2001-08-31 07:59:40 51°16.325 2°53.187 13.3 11 16.2 100710 82
2001-08-31 07:59:46 51°16.344 2°53.169 14.4 12 16.2 100710 82
2001-08-31 07:59:50 51°16.356 2°53.157 14.6 12 16.1 100720 81
2001-08-31 07:59:56 51°16.375 2°53.139 13.6 11 16.1 100720 81
2001-08-31 08:00:00 51°16.388 2°53.128 13.9 13 16.2 100720 82
2001-08-31 08:00:06 51°16.406 2°53.11 14.6 12 16.2 100720 82
2001-08-31 08:00:10 51°16.419 2°53.099 13.3 10 16.2 100720 83
2001-08-31 08:00:16 51°16.437 2°53.081 13.9 10 16.2 100720 83
2001-08-31 08:00:20 51°16.45 2°53.07 14.3 12 16.2 100720 83
2001-08-31 08:00:26 51°16.469 2°53.051 15.3 18 16.2 100720 83
2001-08-31 08:00:30 51°16.481 2°53.039 15.5 15 16.2 100720 82
2001-08-31 08:00:36 51°16.5 2°53.022 15.8 15 16.2 100720 82
2001-08-31 08:00:40 51°16.513 2°53.01 14.7 14 16.2 100720 83
2001-08-31 08:00:46 51°16.531 2°52.992 15 10 16.2 100720 83
2001-08-31 08:00:50 51°16.544 2°52.98 15.2 10 16.2 100710 84
2001-08-31 08:00:56 51°16.562 2°52.963 13.8 10 16.2 100710 84
2001-08-31 08:01:00 51°16.575 2°52.952 16.9 11 16.2 100710 84
2001-08-31 08:01:06 51°16.593 2°52.934 16.1 13 16.2 100710 84
2001-08-31 08:01:10 51°16.605 2°52.922 15.7 11 16.2 100720 84
2001-08-31 08:01:16 51°16.624 2°52.905 14.7 11 16.2 100720 84
2001-08-31 08:01:20 51°16.637 2°52.893 17 15 16.2 100720 83
2001-08-31 08:01:26 51°16.655 2°52.875 17.3 15 16.2 100720 83
2001-08-31 08:01:30 51°16.668 2°52.863 16.5 12 16.1 100710 79
2001-08-31 08:01:36 51°16.686 2°52.845 16.5 14 16.1 100710 79
2001-08-31 08:01:40 51°16.698 2°52.833 17.1 14 16 100720 80
2001-08-31 08:01:46 51°16.717 2°52.815 16.8 15 16 100720 80
2001-08-31 08:01:50 51°16.729 2°52.803 16.6 13 16 100710 81
2001-08-31 08:01:56 51°16.747 2°52.785 17 14 16 100710 81
2001-08-31 08:02:00 51°16.76 2°52.773 14.8 11 16 100710 82
2001-08-31 08:02:06 51°16.778 2°52.755 15.6 12 16 100710 82
2001-08-31 08:02:10 51°16.79 2°52.744 16.7 12 16 100710 83
2001-08-31 08:02:16 51°16.808 2°52.727 15.7 11 16 100710 83
2001-08-31 08:02:20 51°16.82 2°52.715 16.5 12 16.1 100710 84
2001-08-31 08:02:26 51°16.839 2°52.698 15.9 14 16.1 100710 84
2001-08-31 08:02:30 51°16.851 2°52.686 17.2 12 16.1 100720 85
2001-08-31 08:02:36 51°16.869 2°52.669 16.9 12 16.1 100720 85
2001-08-31 08:02:40 51°16.881 2°52.657 16.9 18 16.1 100710 85
2001-08-31 08:02:46 51°16.899 2°52.639 17.3 15 16.1 100710 85
2001-08-31 08:02:50 51°16.911 2°52.628 16.9 12 16.1 100720 84
2001-08-31 08:02:56 51°16.929 2°52.61 16.5 13 16.1 100720 84
2001-08-31 08:03:00 51°16.941 2°52.597 16.1 16 16.1 100710 85
2001-08-31 08:03:06 51°16.96 2°52.579 18.3 14 16.1 100710 85
2001-08-31 08:03:10 51°16.972 2°52.567 17.2 15 16.1 100720 85
2001-08-31 08:03:16 51°16.99 2°52.549 16.2 11 16.1 100720 85
2001-08-31 08:03:20 51°17.002 2°52.537 16.9 16 16.1 100720 85
2001-08-31 08:03:26 51°17.02 2°52.52 15.9 13 16.1 100720 85
2001-08-31 08:03:30 51°17.032 2°52.508 16.1 11 16.1 100710 84
2001-08-31 08:03:36 51°17.05 2°52.491 15.8 11 16.1 100710 84
2001-08-31 08:03:40 51°17.063 2°52.479 16.3 10 16.1 100720 85
2001-08-31 08:03:46 51°17.081 2°52.461 14 13 16.1 100720 85
2001-08-31 08:03:50 51°17.093 2°52.449 15 9 16.1 100720 84
2001-08-31 08:03:56 51°17.111 2°52.43 15.9 11 16.1 100720 84
2001-08-31 08:04:00 51°17.123 2°52.418 14.4 8 16.1 100720 84
2001-08-31 08:04:06 51°17.141 2°52.399 15.1 11 16.1 100720 84
2001-08-31 08:04:10 51°17.153 2°52.387 16.1 9 16 100720 84
2001-08-31 08:04:16 51°17.171 2°52.369 15.9 13 16 100720 84
2001-08-31 08:04:20 51°17.183 2°52.357 15.5 10 16 100720 84
2001-08-31 08:04:26 51°17.201 2°52.338 16.2 10 16 100720 84
2001-08-31 08:04:30 51°17.213 2°52.326 16 12 16 100730 84
2001-08-31 08:04:36 51°17.232 2°52.307 15.7 7 16 100730 84
2001-08-31 08:04:40 51°17.244 2°52.295 14.8 9 16 100730 84
2001-08-31 08:04:46 51°17.262 2°52.277 15.7 12 16 100730 84
2001-08-31 08:04:50 51°17.274 2°52.264 16.7 14 16 100720 83
2001-08-31 08:04:56 51°17.292 2°52.246 17 13 16 100720 83
2001-08-31 08:05:00 51°17.304 2°52.234 17 13 15.9 100720 82
2001-08-31 08:05:06 51°17.322 2°52.215 16.8 13 15.9 100720 82
2001-08-31 08:05:10 51°17.334 2°52.203 17.5 15 15.9 100730 82
2001-08-31 08:05:16 51°17.352 2°52.184 17.2 13 15.9 100730 82
2001-08-31 08:05:20 51°17.363 2°52.171 16.2 14 15.9 100720 82
2001-08-31 08:05:26 51°17.381 2°52.152 15.9 14 15.9 100720 82
2001-08-31 08:05:30 51°17.393 2°52.14 15.1 12 15.9 100720 82
2001-08-31 08:05:36 51°17.411 2°52.122 16.3 14 15.9 100720 82
2001-08-31 08:05:40 51°17.423 2°52.109 15.9 15 15.8 100720 83
2001-08-31 08:05:46 51°17.44 2°52.091 16.4 13 15.8 100720 83
2001-08-31 08:05:50 51°17.452 2°52.078 15.5 15 15.8 100720 83
2001-08-31 08:05:56 51°17.47 2°52.059 15.6 15 15.8 100720 83
2001-08-31 08:06:00 51°17.482 2°52.047 15.7 15 15.8 100730 84
2001-08-31 08:06:06 51°17.5 2°52.029 14.7 10 15.8 100730 84
2001-08-31 08:06:10 51°17.512 2°52.016 15.3 15 15.9 100720 84
2001-08-31 08:06:16 51°17.53 2°51.998 15.7 16 15.9 100720 84
2001-08-31 08:06:20 51°17.542 2°51.985 16.3 9 15.9 100720 84
2001-08-31 08:06:26 51°17.56 2°51.966 16 13 15.9 100720 84
2001-08-31 08:06:30 51°17.571 2°51.954 15.2 11 15.9 100730 85
2001-08-31 08:06:36 51°17.589 2°51.933 13.9 12 15.9 100730 85
2001-08-31 08:06:40 51°17.599 2°51.918 14.9 10 15.9 100720 85
2001-08-31 08:06:46 51°17.614 2°51.893 14.8 5 15.9 100720 85
2001-08-31 08:06:50 51°17.623 2°51.875 16 12 15.9 100730 85
2001-08-31 08:06:56 51°17.636 2°51.848 15.2 8 15.9 100730 85
2001-08-31 08:07:00 51°17.644 2°51.829 16.7 3 15.9 100730 85
2001-08-31 08:07:06 51°17.655 2°51.799 14.6 2 15.9 100730 85
2001-08-31 08:07:10 51°17.663 2°51.779 15 3 15.9 100730 86
2001-08-31 08:07:16 51°17.673 2°51.748 15.8 1 15.9 100730 86
2001-08-31 08:07:20 51°17.679 2°51.728 14.4 2 15.9 100730 85
2001-08-31 08:07:26 51°17.688 2°51.696 14   15.9 100730 85
2001-08-31 08:07:30 51°17.694 2°51.675 14.4 358 15.9 100730 85
2001-08-31 08:07:36 51°17.703 2°51.643 15.1 2 15.9 100730 85
2001-08-31 08:07:40 51°17.71 2°51.622 14.2 4 15.9 100730 86
2001-08-31 08:07:46 51°17.719 2°51.589 13.5 1 15.9 100730 86
2001-08-31 08:07:50 51°17.725 2°51.568 15.5 4 15.9 100730 86
2001-08-31 08:07:56 51°17.734 2°51.537 14.8 360 15.9 100730 86
2001-08-31 08:08:00 51°17.74 2°51.516 14.2 1 15.8 100730 86
2001-08-31 08:08:06 51°17.749 2°51.484 15.4 358 15.8 100730 86
2001-08-31 08:08:10 51°17.755 2°51.462 14.9 2 15.8 100740 86
2001-08-31 08:08:16 51°17.764 2°51.43 15.3 5 15.8 100740 86
2001-08-31 08:08:20 51°17.769 2°51.409 15.3 5 15.8 100730 87
2001-08-31 08:08:26 51°17.778 2°51.377 14.4 3 15.8 100730 87
2001-08-31 08:08:30 51°17.784 2°51.355 14.3 3 15.7 100730 87
2001-08-31 08:08:36 51°17.793 2°51.323 15.2 3 15.7 100730 87
2001-08-31 08:08:40 51°17.799 2°51.301 14.9 1 15.7 100730 87
2001-08-31 08:08:46 51°17.807 2°51.269 14 3 15.7 100730 87
2001-08-31 08:08:50 51°17.813 2°51.247 13.8 2 15.7 100730 88
2001-08-31 08:08:56 51°17.821 2°51.215 14.7 1 15.7 100730 88
2001-08-31 08:09:00 51°17.827 2°51.193 14.3 1 15.6 100730 87
2001-08-31 08:09:06 51°17.835 2°51.16 15.5 358 15.6 100730 87
2001-08-31 08:09:10 51°17.841 2°51.138 15.4 357 15.6 100730 88
2001-08-31 08:09:16 51°17.849 2°51.105 15.3 360 15.6 100730 88
2001-08-31 08:09:20 51°17.854 2°51.083 15 358 15.6 100730 89
2001-08-31 08:09:26 51°17.863 2°51.05 14.9 3 15.6 100730 89
2001-08-31 08:09:30 51°17.869 2°51.028 14.7   15.5 100720 89
2001-08-31 08:09:36 51°17.877 2°50.995 14.6 1 15.5 100720 89
2001-08-31 08:09:40 51°17.883 2°50.973 15.1 5 15.5 100720 89
2001-08-31 08:09:46 51°17.892 2°50.94 13.9 4 15.5 100720 89
2001-08-31 08:09:50 51°17.898 2°50.919 14   15.4 100740 89
2001-08-31 08:09:56 51°17.907 2°50.887 13.5 1 15.4 100740 89
2001-08-31 08:10:00 51°17.913 2°50.865 12.5 357 15.4 100730 89
2001-08-31 08:10:06 51°17.921 2°50.833 13 1 15.4 100730 89
2001-08-31 08:10:10 51°17.927 2°50.812 13.7 360 15.4 100730 89
2001-08-31 08:10:16 51°17.936 2°50.779 13.8 358 15.4 100730 89
2001-08-31 08:10:20 51°17.942 2°50.758 14.1 6 15.4 100730 90
2001-08-31 08:10:26 51°17.951 2°50.726 12.5 3 15.4 100730 90
2001-08-31 08:10:30 51°17.957 2°50.704 13.6 2 15.4 100730 90
2001-08-31 08:10:36 51°17.966 2°50.672 12.5 2 15.4 100730 90
2001-08-31 08:10:40 51°17.972 2°50.651 14.1 1 15.3 100730 90
2001-08-31 08:10:46 51°17.981 2°50.618 15.1 3 15.3 100730 90
2001-08-31 08:10:50 51°17.987 2°50.597 14.1 6 15.3 100740 90
2001-08-31 08:10:56 51°17.996 2°50.564 12.4 2 15.3 100740 90
2001-08-31 08:11:00 51°18.002 2°50.542 12.5 4 15.3 100730 90
2001-08-31 08:11:06 51°18.011 2°50.51 13.2 2 15.3 100730 90
2001-08-31 08:11:10 51°18.016 2°50.488 13.7 3 15.2 100740 90
2001-08-31 08:11:16 51°18.025 2°50.455 13.8 359 15.2 100740 90
2001-08-31 08:11:20 51°18.031 2°50.434 11.7 358 15.2 100730 90
2001-08-31 08:11:26 51°18.04 2°50.401 11.4 359 15.2 100730 90
2001-08-31 08:11:30 51°18.046 2°50.379 13 355 15.2 100740 90
2001-08-31 08:11:36 51°18.055 2°50.346 12 2 15.2 100740 90
2001-08-31 08:11:40 51°18.061 2°50.325 12.1 2 15.1 100740 90
2001-08-31 08:11:46 51°18.07 2°50.292 12.4 1 15.1 100740 90
2001-08-31 08:11:50 51°18.075 2°50.27 13.1 8 15.1 100730 90
2001-08-31 08:11:56 51°18.084 2°50.236 13.2 4 15.1 100730 90
2001-08-31 08:12:00 51°18.089 2°50.214 13.5 8 15.1 100740 91
2001-08-31 08:12:06 51°18.098 2°50.179 14.2 6 15.1 100740 91
2001-08-31 08:12:10 51°18.103 2°50.156 13.5 4 15.1 100740 91
2001-08-31 08:12:16 51°18.111 2°50.124 12.4 4 15.1 100740 91
2001-08-31 08:12:20 51°18.117 2°50.102 12.9 6 15.1 100730 91
2001-08-31 08:12:26 51°18.126 2°50.07 12.5 8 15.1 100730 91
2001-08-31 08:12:30 51°18.132 2°50.048 13.1 2 15.1 100730 91
2001-08-31 08:12:36 51°18.141 2°50.016 13.4 8 15.1 100730 91
2001-08-31 08:12:40 51°18.148 2°49.995 12.8 2 15.1 100730 91
2001-08-31 08:12:46 51°18.157 2°49.963 11.8 10 15.1 100730 91
2001-08-31 08:12:50 51°18.163 2°49.941 12.6 1 15.1 100730 91
2001-08-31 08:12:56 51°18.171 2°49.908 11.7 1 15.1 100730 91
2001-08-31 08:13:00 51°18.177 2°49.886 12.3 4 15.1 100730 91
2001-08-31 08:13:06 51°18.186 2°49.853 11.4 3 15.1 100730 91
2001-08-31 08:13:10 51°18.191 2°49.831 11.9 4 15 100730 91
2001-08-31 08:13:16 51°18.2 2°49.798 11.8 4 15 100730 91
2001-08-31 08:13:20 51°18.205 2°49.776 11.2 5 15 100740 91
2001-08-31 08:13:26 51°18.214 2°49.743 12.1 6 15 100740 91
2001-08-31 08:13:30 51°18.22 2°49.722 11 358 15 100740 91
2001-08-31 08:13:36 51°18.229 2°49.689 10.4 358 15 100740 91
2001-08-31 08:13:40 51°18.235 2°49.668 10.7 7 15 100750 91
2001-08-31 08:13:46 51°18.244 2°49.635 11.2 5 15 100750 91
2001-08-31 08:13:50 51°18.25 2°49.613 10.5 2 15 100740 92
2001-08-31 08:13:56 51°18.259 2°49.58 10.3 7 15 100740 92
2001-08-31 08:14:00 51°18.265 2°49.558 11.1 5 15 100740 92
2001-08-31 08:14:06 51°18.273 2°49.525 8.9 1 15 100740 92
2001-08-31 08:14:10 51°18.279 2°49.503 10 8 14.9 100740 92
2001-08-31 08:14:16 51°18.287 2°49.47 11.8 10 14.9 100740 92
2001-08-31 08:14:20 51°18.293 2°49.448 10.9 5 15 100740 92
2001-08-31 08:14:26 51°18.302 2°49.415 11.5 4 15 100740 92
2001-08-31 08:14:30 51°18.308 2°49.394 11 5 14.9 100750 92
2001-08-31 08:14:36 51°18.316 2°49.361 10.3 2 14.9 100750 92
2001-08-31 08:14:40 51°18.322 2°49.339 10.9 3 14.9 100740 92
2001-08-31 08:14:46 51°18.33 2°49.305 11.3 7 14.9 100740 92
2001-08-31 08:14:50 51°18.336 2°49.283 10.3 7 14.9 100750 92
2001-08-31 08:14:56 51°18.344 2°49.251 11.1 10 14.9 100750 92
2001-08-31 08:15:00 51°18.35 2°49.229 11.4 6 14.9 100750 92
2001-08-31 08:15:06 51°18.359 2°49.197 10.8 9 14.9 100750 92
2001-08-31 08:15:10 51°18.366 2°49.177 12.3 3 14.9 100740 92
2001-08-31 08:15:16 51°18.376 2°49.146 12.9 13 14.9 100740 92
2001-08-31 08:15:20 51°18.382 2°49.125 11.8 12 14.9 100750 92
2001-08-31 08:15:26 51°18.39 2°49.091 10.3 8 14.9 100750 92
2001-08-31 08:15:30 51°18.396 2°49.069 11.8 7 14.9 100740 92
2001-08-31 08:15:36 51°18.405 2°49.037 12.1 3 14.9 100740 92
2001-08-31 08:15:40 51°18.411 2°49.015 12 1 14.9 100740 92
2001-08-31 08:15:46 51°18.42 2°48.983 12.6 2 14.9 100740 92
2001-08-31 08:15:50 51°18.426 2°48.961 12 3 15 100740 92
2001-08-31 08:15:56 51°18.434 2°48.928 12.2 3 15 100740 92
2001-08-31 08:16:00 51°18.44 2°48.906 12.2 3 15 100740 92
2001-08-31 08:16:06 51°18.449 2°48.873 11.7 358 15 100740 92
2001-08-31 08:16:11 51°18.456 2°48.846 11.9 360 14.9 100740 92
2001-08-31 08:16:16 51°18.463 2°48.819 12.7 1 14.9 100740 92
2001-08-31 08:16:20 51°18.469 2°48.798 12.7 360 14.9 100740 92
2001-08-31 08:16:26 51°18.478 2°48.765 11.8 359 14.9 100740 92
2001-08-31 08:16:30 51°18.484 2°48.744 12 357 14.9 100740 91
2001-08-31 08:16:36 51°18.493 2°48.711 10.8 358 14.9 100740 91
2001-08-31 08:16:40 51°18.499 2°48.689 11.5 3 14.9 100740 91
2001-08-31 08:16:46 51°18.507 2°48.656 11.6 2 14.9 100740 91
2001-08-31 08:16:50 51°18.513 2°48.634 10.8 2 14.8 100740 90
2001-08-31 08:16:56 51°18.522 2°48.601 10.6 1 14.8 100740 90
2001-08-31 08:17:00 51°18.527 2°48.579 10.2 1 14.8 100740 89
2001-08-31 08:17:06 51°18.536 2°48.547 11.5 3 14.8 100740 89
2001-08-31 08:17:10 51°18.542 2°48.526 11   14.8 100740 89
2001-08-31 08:17:16 51°18.551 2°48.493 10.6 360 14.8 100740 89
2001-08-31 08:17:20 51°18.557 2°48.471 12 2 14.7 100740 88
2001-08-31 08:17:26 51°18.566 2°48.438 11 2 14.7 100740 88
2001-08-31 08:17:30 51°18.572 2°48.417 11.4 358 14.7 100740 88
2001-08-31 08:17:36 51°18.581 2°48.384 10.2 1 14.7 100740 88
2001-08-31 08:17:40 51°18.587 2°48.362 10.7 359 14.7 100740 88
2001-08-31 08:17:46 51°18.596 2°48.328 9.9 1 14.7 100740 88
2001-08-31 08:17:50 51°18.602 2°48.307 11.1 352 14.7 100740 88
2001-08-31 08:17:56 51°18.611 2°48.274 10.9 356 14.7 100740 88
2001-08-31 08:18:00 51°18.617 2°48.252 11.2 356 14.7 100740 88
2001-08-31 08:18:06 51°18.628 2°48.221 12.2 355 14.7 100740 88
2001-08-31 08:18:11 51°18.636 2°48.194 11.8 357 14.7 100740 89
2001-08-31 08:18:16 51°18.643 2°48.167 12 353 14.7 100740 89
2001-08-31 08:18:20 51°18.649 2°48.144 12.1 353 14.8 100730 89
2001-08-31 08:18:26 51°18.657 2°48.111 11.3 357 14.8 100730 89
2001-08-31 08:18:30 51°18.663 2°48.089 12.4 357 14.8 100730 89
2001-08-31 08:18:36 51°18.671 2°48.055 12.6 357 14.8 100730 89
2001-08-31 08:18:40 51°18.677 2°48.033 12.9 357 14.9 100720 89
2001-08-31 08:18:46 51°18.685 2°48 12.3 356 14.9 100720 89
2001-08-31 08:18:50 51°18.691 2°47.978 12.6 1 15 100730 90
2001-08-31 08:18:56 51°18.7 2°47.946 13.6 355 15 100730 90
2001-08-31 08:19:00 51°18.706 2°47.924 13.2 359 15 100720 90
2001-08-31 08:19:06 51°18.715 2°47.892 12.8 358 15 100720 90
2001-08-31 08:19:10 51°18.721 2°47.87 13 356 15.1 100720 90
2001-08-31 08:19:16 51°18.731 2°47.837 12.4 358 15.1 100720 90
2001-08-31 08:19:20 51°18.737 2°47.815 12.8 359 15.1 100710 89
2001-08-31 08:19:26 51°18.746 2°47.783 13.1 359 15.1 100710 89
2001-08-31 08:19:30 51°18.752 2°47.761 13.6 357 15.2 100730 89
2001-08-31 08:19:36 51°18.762 2°47.728 12.5 359 15.2 100730 89
2001-08-31 08:19:40 51°18.768 2°47.706 11.6 360 15.2 100710 90
2001-08-31 08:19:46 51°18.777 2°47.673 12.8 356 15.2 100710 90
2001-08-31 08:19:50 51°18.783 2°47.651 12.9 357 15.3 100720 90
2001-08-31 08:19:56 51°18.792 2°47.619 12.4 356 15.3 100720 90
2001-08-31 08:20:00 51°18.798 2°47.597 13.1 357 15.3 100720 90
2001-08-31 08:20:06 51°18.807 2°47.564 13.8 359 15.3 100720 90
2001-08-31 08:20:10 51°18.812 2°47.542 14.2 1 15.4 100730 89
2001-08-31 08:20:16 51°18.821 2°47.508 14.4 359 15.4 100730 89
2001-08-31 08:20:20 51°18.827 2°47.486 14 359 15.4 100730 90
2001-08-31 08:20:26 51°18.834 2°47.451 14.5 359 15.4 100730 90
2001-08-31 08:20:30 51°18.84 2°47.428 14 358 15.5 100720 89
2001-08-31 08:20:36 51°18.848 2°47.394 13.8 357 15.5 100720 89
2001-08-31 08:20:40 51°18.854 2°47.372 14 359 15.5 100720 89
2001-08-31 08:20:46 51°18.863 2°47.34 14.7 358 15.5 100720 89
2001-08-31 08:20:50 51°18.869 2°47.318 14.4 359 15.5 100720 88
2001-08-31 08:20:56 51°18.879 2°47.285 14.7 356 15.5 100720 88
2001-08-31 08:21:00 51°18.885 2°47.263 15 358 15.4 100720 86
2001-08-31 08:21:06 51°18.894 2°47.23 13.3 357 15.4 100720 86
2001-08-31 08:21:10 51°18.9 2°47.208 13.4 357 15.4 100720 87
2001-08-31 08:21:16 51°18.91 2°47.175 13.8 358 15.4 100720 87
2001-08-31 08:21:20 51°18.916 2°47.153 13.3 358 15.5 100710 88
2001-08-31 08:21:26 51°18.926 2°47.12 14.5 1 15.5 100710 88
2001-08-31 08:21:30 51°18.933 2°47.098 14.7 358 15.5 100720 88
2001-08-31 08:21:36 51°18.942 2°47.065 14.8 357 15.5 100720 88
2001-08-31 08:21:40 51°18.948 2°47.043 13.6 357 15.6 100720 89
2001-08-31 08:21:46 51°18.957 2°47.01 14.1 356 15.6 100720 89
2001-08-31 08:21:50 51°18.963 2°46.988 13.2 356 15.6 100720 89
2001-08-31 08:21:56 51°18.971 2°46.955 12.2 356 15.6 100720 89
2001-08-31 08:22:00 51°18.977 2°46.933 12.8 358 15.7 100720 88
2001-08-31 08:22:06 51°18.986 2°46.899 13.8 360 15.7 100720 88
2001-08-31 08:22:10 51°18.992 2°46.877 14.5 359 15.7 100720 88
2001-08-31 08:22:16 51°19.001 2°46.844 14.1 359 15.7 100720 88
2001-08-31 08:22:20 51°19.007 2°46.822 14.4 358 15.7 100720 88
2001-08-31 08:22:26 51°19.017 2°46.789 14.8 357 15.7 100720 88
2001-08-31 08:22:30 51°19.023 2°46.767 13.8 358 15.7 100710 88
2001-08-31 08:22:36 51°19.032 2°46.734 13.9 3 15.7 100710 88
2001-08-31 08:22:40 51°19.039 2°46.713 13.4 1 15.7 100730 88
2001-08-31 08:22:46 51°19.048 2°46.68 15.4 1 15.7 100730 88
2001-08-31 08:22:50 51°19.054 2°46.658 15.7 357 15.7 100710 87
2001-08-31 08:22:56 51°19.064 2°46.625 15.9   15.7 100710 87
2001-08-31 08:23:00 51°19.07 2°46.603 14.7 1 15.7 100720 87
2001-08-31 08:23:06 51°19.079 2°46.57 14.6 359 15.7 100720 87
2001-08-31 08:23:10 51°19.085 2°46.548 14.7 359 15.7 100720 88
2001-08-31 08:23:16 51°19.094 2°46.515 14.8 360 15.7 100720 88
2001-08-31 08:23:20 51°19.101 2°46.494 14.8 359 15.7 100720 87
2001-08-31 08:23:26 51°19.11 2°46.461 14.3 359 15.7 100720 87
2001-08-31 08:23:30 51°19.117 2°46.439 14.2 357 15.7 100720 87
2001-08-31 08:23:36 51°19.126 2°46.406 14.8 358 15.7 100720 87
2001-08-31 08:23:40 51°19.133 2°46.383 15.1 5 15.7 100710 87
2001-08-31 08:23:46 51°19.142 2°46.349 14.9   15.7 100710 87
2001-08-31 08:23:50 51°19.149 2°46.328 14.5 358 15.7 100720 86
2001-08-31 08:23:56 51°19.158 2°46.296 13.3 1 15.7 100720 86
2001-08-31 08:24:00 51°19.164 2°46.274 12.6 359 15.7 100720 87
2001-08-31 08:24:06 51°19.173 2°46.241 14.4 359 15.7 100720 87
2001-08-31 08:24:10 51°19.178 2°46.219 13.7 357 15.7 100730 86
2001-08-31 08:24:16 51°19.187 2°46.186 13.5 359 15.7 100730 86
2001-08-31 08:24:20 51°19.193 2°46.164 13.1 359 15.7 100720 86
2001-08-31 08:24:26 51°19.201 2°46.131 13.6 352 15.7 100720 86
2001-08-31 08:24:30 51°19.207 2°46.11 13.5 357 15.7 100730 86
2001-08-31 08:24:36 51°19.216 2°46.077 14.6 359 15.7 100730 86
2001-08-31 08:24:40 51°19.223 2°46.055 14.1 358 15.7 100720 86
2001-08-31 08:24:46 51°19.232 2°46.022 14 360 15.7 100720 86
2001-08-31 08:24:50 51°19.238 2°46 13.4 358 15.7 100720 87
2001-08-31 08:24:56 51°19.247 2°45.967 13.4 357 15.7 100720 87
2001-08-31 08:25:00 51°19.254 2°45.945 13.7 357 15.7 100710 86
2001-08-31 08:25:06 51°19.263 2°45.913 14 359 15.7 100710 86
2001-08-31 08:25:10 51°19.269 2°45.891 14.5   15.6 100720 84
2001-08-31 08:25:16 51°19.278 2°45.858 13.7 359 15.6 100720 84
2001-08-31 08:25:20 51°19.284 2°45.837 13.2 360 15.6 100720 84
2001-08-31 08:25:26 51°19.294 2°45.804 15 358 15.6 100720 84
2001-08-31 08:25:30 51°19.3 2°45.782 13.2 358 15.6 100730 84
2001-08-31 08:25:36 51°19.308 2°45.75 13 357 15.6 100730 84
2001-08-31 08:25:40 51°19.314 2°45.729 13.2 358 15.6 100730 84
2001-08-31 08:25:46 51°19.323 2°45.696 13 356 15.6 100730 84